NOAA 16 DEB

Satellite information

Favourite Embed

Satellite Type and Status

DEBRISIN ORBIT

Key statistics

Satellite NOAA 16 DEB at a glance.

Uptime

9159

Days in orbit

Revolutions

≈ 14.4

Per day

Orbit

SSO

Sun Synchronous Orbit

Inclination

99.1

Latest

Satellite identification and parameters

Extended collection of information and parameters for NOAA 16 DEB.

Object identification

Identified? True

Debris? True

Object name: NOAA 16 DEB

International designator: 2000-055QF

Object number (NORAD): 42339

Object ID (CCSDS): 42339

Country: UNITED STATES OF AMERICA (US)

Current information (Y/N): Y

RCS size: SMALL

Orbital parameters

Period: 100.044 minutes

Inclination: 99.0943 deg

SMA: 7138.734 km

Apoapsis: 772.791 km

Periapsis: 748.407 km

RAAN: 141.3008 deg

Eccentricy: 0.0017079

Argument of periapsis: 290.3406 deg

Mean anomaly: 69.5944 deg

Mean motion: 14.39365023 rev/day

Mean motion (dot): 0.00010574 rev/day2

B* drag term: 0.0034057163 1/REarth

Two-line elements (TLE)

Creation date: Oct. 19, 2025, 2:20 a.m.

Reference frame: TEME

Reference center: EARTH

Epoch: Oct. 18, 2025, 8:40 p.m. UTC

TLE line 0: 0 NOAA 16 DEB

TLE line 1: 1 42339U 00055QF 25291.86172543 .00010574 00000-0 34057-2 0 9994

TLE line 2: 2 42339 99.0943 141.3008 0017079 290.3406 69.5944 14.39365023492741

Live tracking on map

Real-time ground track for satellite NOAA 16 DEB.

In-orbit conjunctions

A list of the most updated potential collisions computed for object NOAA 16 DEB.

Target Orbit TCA Probability of collision Miss distance Type
DELTA 1 DEB SSO 2025-05-20 09:25:43 0.0001448471 151.0 (m) DEBRIS
COSMOS 1850 LEO 2025-03-23 05:02:45 0.0001008189 153.0 (m) PAYLOAD
CZ-6A DEB LEO 2024-11-23 15:36:39 0.0002759404 404.0 (m) DEBRIS
STELLA SSO 2024-07-02 13:56:41 0.0001821143 565.0 (m) PAYLOAD
COSMOS 1570 LEO 2024-06-24 08:39:22 0.0001195435 822.0 (m) PAYLOAD

Associated space launch

The NOAA K, L and M POES satellites begin the fifth generation of improved environmental monitoring in support of NOAA missions. The instrument payload has significant improvements and additions/deletions. The instrument changes have effected the spacecraft subsystems and data formats.

NOAA 16 DEB was lifted into orbit during the mission ‘Titan II SLV | NOAA 16’, on board a Titan II SLV space rocket.

The launch took place on Sept. 21, 2000, 10:22 a.m. from Space Launch Complex 4W.

For more information about the launch, click the button.

Launch to space Titan II SLV | NOAA 16
Titan II SLV | NOAA 16

Agency: N/A

Status: Launch Successful

Launch date: Sept. 21, 2000, 10:22 a.m. UTC

Rocket: Titan II SLV

Launch pad: Space Launch Complex 4W

Location: Vandenberg SFB, CA, USA

...

Latest news about this satellite

There are no fresh news available about this satellite. Check back as we update our databases every day.


Newsletter sign-up

Weekly statistics, charts and insights to help you stay on top of the space industry.